This is the latest recevied weather packets stored in our database for station/object N0NAI-13. If no packets are shown the sender has not sent any weather packets the latest 1 day(s).
| Time | Temp. | Humidity | Pressure | Rain* | Wind** | Luminosity | Snow |
|---|---|---|---|---|---|---|---|
| 1778024720 | 10.56° C | 42% | 1012.6 hPa | 0 mm | 0.89 m/s, 285° | - | - |
| 1778024123 | 10.56° C | 42% | 1012.6 hPa | 0 mm | 1.79 m/s, 257° | - | - |
| 1778023526 | 11.11° C | 42% | 1012.6 hPa | 0 mm | 1.79 m/s, 298° | - | - |
| 1778022928 | 11.11° C | 42% | 1012.6 hPa | 0 mm | 0.89 m/s, 335° | - | - |
| 1778022331 | 10.56° C | 42% | 1012.6 hPa | 0 mm | 1.34 m/s, 326° | - | - |
| 1778021716 | 10.56° C | 41% | 1012.7 hPa | 0 mm | 1.34 m/s, 228° | - | - |
| 1778021119 | 11.11° C | 40% | 1012.7 hPa | 0 mm | 1.79 m/s, 299° | - | - |
| 1778020522 | 11.11° C | 40% | 1012.7 hPa | 0 mm | 1.79 m/s, 286° | - | - |
| 1778019925 | 11.67° C | 39% | 1012.7 hPa | 0 mm | 1.34 m/s, 258° | - | - |
| 1778019328 | 11.67° C | 40% | 1012.5 hPa | 0 mm | 1.79 m/s, 271° | - | - |
| 1778018731 | 11.67° C | 39% | 1012.6 hPa | 0 mm | 1.79 m/s, 308° | - | - |
| 1778018126 | 11.67° C | 40% | 1012.6 hPa | 0 mm | 1.79 m/s, 270° | - | - |
| 1778017519 | 11.67° C | 40% | 1012.7 hPa | 0 mm | 2.24 m/s, 273° | - | - |
| 1778016922 | 11.11° C | 41% | 1012.8 hPa | 0 mm | 2.24 m/s, 272° | - | - |
| 1778016325 | 11.11° C | 41% | 1012.7 hPa | 0 mm | 1.79 m/s, 304° | - | - |
| 1778015722 | 11.11° C | 41% | 1012.7 hPa | 0 mm | 1.79 m/s, 280° | - | - |
| 1778015119 | 11.67° C | 41% | 1012.8 hPa | 0 mm | 1.79 m/s, 275° | - | - |
| 1778014516 | 11.67° C | 41% | 1012.8 hPa | 0 mm | 1.79 m/s, 270° | - | - |
| 1778013919 | 12.22° C | 40% | 1012.8 hPa | 0 mm | 1.34 m/s, 297° | - | - |
| 1778013322 | 12.22° C | 40% | 1012.8 hPa | 0 mm | 2.24 m/s, 279° | - | - |
| 1778012725 | 12.78° C | 39% | 1012.9 hPa | 0 mm | 2.24 m/s, 273° | - | - |
| 1778012128 | 12.22° C | 40% | 1012.9 hPa | 0 mm | 1.79 m/s, 281° | - | - |
| 1778011531 | 12.22° C | 40% | 1012.9 hPa | 0 mm | 1.79 m/s, 267° | - | - |
| 1778010916 | 13.33° C | 39% | 1013 hPa | 0 mm | 2.24 m/s, 267° | - | - |
| 1778010318 | 12.78° C | 40% | 1013 hPa | 0 mm | 2.68 m/s, 272° | - | - |
* Rain latest hour (hover to see other rain measurements)
** Current wind speed in m/s (hover to see current wind gust speed)